Date String (YYYY-MM-DD hh:mm:ss) UTC,Instrument flags,absolute air pressure of the measurement (hPa),sample flow rate (lpm),inlet stack bypass flow (lpm),air temperature of the measurement (°C),ambient temperature measured by the external sensor (°C),aerosol sample conditioner tube jacket temperature (°C),OPC LED temperature (°C),internal box temperature (°C),relative humidity of the measurement (%),span deviation,mass concentration of particles derived from Lorenz-Mie calculation of OPC scattering (μg/m³),mass concentration of particles derived from Lorenz-Mie calculation of OPC scattering (μg/m³),mass concentration of particles derived from Lorenz-Mie calculation of OPC scattering (μg/m³)
DateTimeUTC,F1_M11,P_M11,Q1_M11,Q2_M11,T1_M11,T2_M11,T3_M11,T4_M11,T5_M11,U1_M11,ZSPAN_M11,X0_M11,X2_M11,X1_M11
2023-07-28 01:00:00,SystemResetWarning,0833.4,5.00,000.00,028.8,027.5,000.0,037.0,030.6,27.0,0000.0,0009.02,0003.27,0002.22
2023-07-28 01:01:00,SystemResetWarning,0833.4,5.00,000.00,028.8,026.5,000.0,037.0,030.5,27.2,0000.0,0008.73,0003.25,0002.23
2023-07-28 01:02:00,SystemResetWarning,0833.4,5.00,000.00,028.7,024.9,000.0,036.9,030.2,27.5,0000.0,0008.24,0003.22,0002.22
2023-07-28 01:03:00,SystemResetWarning,0833.4,5.01,000.00,028.7,024.7,000.0,036.8,030.1,28.0,0000.0,0007.69,0003.20,0002.20
2023-07-28 01:04:00,SystemResetWarning,0833.4,5.02,000.00,028.6,025.0,000.0,036.8,030.0,28.4,0000.0,0007.55,0003.21,0002.19
2023-07-28 01:05:00,SystemResetWarning,0833.4,4.99,000.00,028.6,025.5,000.0,036.9,030.0,28.4,0000.0,0007.61,0003.22,0002.16
2023-07-28 01:06:00,SystemResetWarning,0833.4,4.99,000.00,028.6,026.0,000.0,036.9,030.1,28.7,0000.0,0007.52,0003.21,0002.17
2023-07-28 01:07:00,SystemResetWarning,0833.5,5.00,000.00,028.6,026.4,000.0,036.9,030.3,29.0,0000.0,0007.30,0003.16,0002.15
2023-07-28 01:08:00,SystemResetWarning,0833.6,5.00,000.00,028.6,026.8,000.0,037.0,030.3,29.1,0000.0,0007.05,0003.15,0002.14
2023-07-28 01:09:00,SystemResetWarning,0833.7,5.01,000.00,028.7,027.1,000.0,037.0,030.4,29.3,0000.0,0005.86,0003.13,0002.14
2023-07-28 01:10:00,SystemResetWarning,0833.7,5.00,000.00,028.8,027.4,000.0,037.0,030.5,29.6,0000.0,0005.63,0003.12,0002.13
2023-07-28 01:11:00,SystemResetWarning,0833.7,4.99,000.00,028.8,027.5,000.0,037.0,030.6,29.5,0000.0,0006.72,0003.14,0002.10
2023-07-28 01:12:00,SystemResetWarning,0833.7,4.99,000.00,028.8,026.1,000.0,037.0,030.4,29.2,0000.0,0006.87,0003.16,0002.09
2023-07-28 01:13:00,SystemResetWarning,0833.7,5.01,000.00,028.7,025.5,000.0,036.9,030.2,28.0,0000.0,0006.76,0003.12,0002.05
2023-07-28 01:14:00,SystemResetWarning,0833.7,5.00,000.00,028.7,025.8,000.0,036.9,030.2,27.0,0000.0,0006.95,0003.15,0002.05
2023-07-28 01:15:00,SystemResetWarning,0833.7,4.99,000.00,028.7,026.1,000.0,037.0,030.2,27.1,0000.0,0007.21,0003.17,0002.05
2023-07-28 01:16:00,SystemResetWarning,0833.7,5.00,000.00,028.7,026.5,000.0,037.0,030.3,26.4,0000.0,0007.20,0003.16,0002.07
2023-07-28 01:17:00,SystemResetWarning,0833.7,5.00,000.00,028.7,026.9,000.0,037.0,030.4,25.4,0000.0,0007.44,0003.13,0002.07
2023-07-28 01:18:00,SystemResetWarning,0833.7,4.99,000.00,028.8,027.2,000.0,037.1,030.5,25.1,0000.0,0007.48,0003.14,0002.08
2023-07-28 01:19:00,SystemResetWarning,0833.8,4.99,000.00,028.8,027.5,000.0,037.1,030.6,24.6,0000.0,0007.61,0003.19,0002.13
2023-07-28 01:20:00,SystemResetWarning,0833.8,4.99,000.00,028.9,026.9,000.0,037.0,030.6,24.5,0000.0,0007.69,0003.23,0002.17
2023-07-28 01:21:00,SystemResetWarning,0833.7,5.00,000.00,028.8,025.1,000.0,037.0,030.2,24.8,0000.0,0007.75,0003.26,0002.22
2023-07-28 01:22:00,SystemResetWarning,0833.7,5.01,000.00,028.7,024.6,000.0,036.9,030.1,24.8,0000.0,0007.23,0003.32,0002.27
2023-07-28 01:23:00,SystemResetWarning,0833.7,5.02,000.00,028.6,024.9,000.0,036.9,029.9,24.3,0000.0,0007.95,0003.33,0002.32
2023-07-28 01:24:00,SystemResetWarning,0833.6,5.00,000.00,028.6,025.3,000.0,036.9,030.0,24.2,0000.0,0008.44,0003.36,0002.38
2023-07-28 01:25:00,SystemResetWarning,0833.7,5.00,000.00,028.6,025.8,000.0,037.0,030.1,24.4,0000.0,0008.47,0003.39,0002.43
2023-07-28 01:26:00,SystemResetWarning,0833.7,5.00,000.00,028.6,026.3,000.0,037.0,030.2,24.8,0000.0,0008.37,0003.40,0002.47
2023-07-28 01:27:00,SystemResetWarning,0833.6,5.00,000.00,028.7,026.7,000.0,037.0,030.3,24.8,0000.0,0008.55,0003.43,0002.50
2023-07-28 01:28:00,SystemResetWarning,0833.6,5.00,000.00,028.7,027.1,000.0,037.0,030.4,24.6,0000.0,0009.16,0003.51,0002.54
2023-07-28 01:29:00,SystemResetWarning,0833.7,4.99,000.00,028.8,027.4,000.0,037.1,030.5,24.7,0000.0,0009.31,0003.55,0002.60
2023-07-28 01:30:00,SystemResetWarning,0833.7,5.00,000.00,028.8,027.6,000.0,037.1,030.6,24.8,0000.0,0009.39,0003.52,0002.61
2023-07-28 01:31:00,SystemResetWarning,0833.6,5.00,000.00,028.8,026.4,000.0,037.0,030.4,24.8,0000.0,0009.49,0003.56,0002.61
2023-07-28 01:32:00,SystemResetWarning,0833.6,5.00,000.00,028.7,024.8,000.0,036.9,030.2,24.6,0000.0,0009.55,0003.58,0002.62
2023-07-28 01:33:00,SystemResetWarning,0833.5,5.01,000.00,028.7,024.7,000.0,036.8,030.0,24.7,0000.0,0009.70,0003.55,0002.61
2023-07-28 01:34:00,SystemResetWarning,0833.5,5.01,000.00,028.6,025.1,000.0,036.9,029.9,24.9,0000.0,0009.07,0003.52,0002.59
2023-07-28 01:35:00,SystemResetWarning,0833.5,5.00,000.00,028.6,025.5,000.0,036.9,030.0,25.1,0000.0,0008.70,0003.52,0002.55
2023-07-28 01:36:00,SystemResetWarning,0833.5,4.99,000.00,028.6,026.0,000.0,036.9,030.1,24.9,0000.0,0008.66,0003.47,0002.50
2023-07-28 01:37:00,SystemResetWarning,0833.5,5.00,000.00,028.6,026.5,000.0,037.0,030.2,24.8,0000.0,0008.69,0003.44,0002.47
2023-07-28 01:38:00,SystemResetWarning,0833.5,5.00,000.00,028.7,026.8,000.0,037.0,030.3,24.8,0000.0,0008.50,0003.40,0002.44
2023-07-28 01:39:00,SystemResetWarning,0833.5,5.00,000.00,028.7,027.2,000.0,037.0,030.4,24.8,0000.0,0007.52,0003.32,0002.39
2023-07-28 01:40:00,SystemResetWarning,0833.5,4.99,000.00,028.8,027.5,000.0,037.0,030.5,24.7,0000.0,0007.23,0003.24,0002.33
2023-07-28 01:41:00,SystemResetWarning,0833.5,4.99,000.00,028.8,027.7,000.0,037.1,030.6,24.6,0000.0,0006.79,0003.23,0002.28
2023-07-28 01:42:00,SystemResetWarning,0833.5,4.99,000.00,028.9,026.8,000.0,037.0,030.5,24.8,0000.0,0006.46,0003.16,0002.25
2023-07-28 01:43:00,SystemResetWarning,0833.5,5.00,000.00,028.8,025.0,000.0,036.9,030.2,24.9,0000.0,0006.28,0003.13,0002.21
2023-07-28 01:44:00,SystemResetWarning,0833.5,5.01,000.00,028.7,024.6,000.0,036.8,030.1,24.7,0000.0,0005.56,0003.07,0002.17
2023-07-28 01:45:00,SystemResetWarning,0833.6,5.01,000.00,028.6,025.0,000.0,036.9,030.0,24.9,0000.0,0005.51,0003.04,0002.16
2023-07-28 01:46:00,SystemResetWarning,0833.5,5.00,000.00,028.6,025.4,000.0,036.9,030.0,25.0,0000.0,0005.59,0003.03,0002.14
2023-07-28 01:47:00,SystemResetWarning,0833.6,5.00,000.00,028.6,025.9,000.0,036.9,030.1,25.0,0000.0,0005.52,0003.05,0002.14
2023-07-28 01:48:00,SystemResetWarning,0833.6,5.00,000.00,028.6,026.3,000.0,037.0,030.2,24.9,0000.0,0005.30,0003.01,0002.14
2023-07-28 01:49:00,SystemResetWarning,0833.6,5.00,000.00,028.7,026.7,000.0,037.0,030.3,24.9,0000.0,0005.06,0002.97,0002.14
2023-07-28 01:50:00,SystemResetWarning,0833.6,4.98,000.00,028.7,027.1,000.0,037.0,030.4,24.7,0000.0,0005.05,0002.99,0002.13
2023-07-28 01:51:00,SystemResetWarning,0833.7,4.99,000.00,028.8,027.4,000.0,037.1,030.5,24.7,0000.0,0005.31,0003.02,0002.13
2023-07-28 01:52:00,SystemResetWarning,0833.7,5.00,000.00,028.8,027.5,000.0,037.1,030.6,24.7,0000.0,0005.69,0003.03,0002.12
2023-07-28 01:53:00,SystemResetWarning,0833.7,4.99,000.00,028.8,026.2,000.0,037.0,030.4,24.6,0000.0,0006.22,0003.03,0002.12
2023-07-28 01:54:00,SystemResetWarning,0833.6,5.03,000.00,028.8,025.5,000.0,036.9,030.3,24.9,0000.0,0006.90,0003.01,0002.10
2023-07-28 01:55:00,SystemResetWarning,0833.7,5.00,000.00,028.7,025.7,000.0,036.9,030.2,24.9,0000.0,0006.92,0003.00,0002.10
2023-07-28 01:56:00,SystemResetWarning,0833.7,5.00,000.00,028.7,026.0,000.0,037.0,030.2,24.9,0000.0,0006.65,0002.96,0002.08
2023-07-28 01:57:00,SystemResetWarning,0833.7,5.00,000.00,028.7,026.4,000.0,037.0,030.3,24.8,0000.0,0006.31,0002.92,0002.08
2023-07-28 01:58:00,SystemResetWarning,0833.7,4.99,000.00,028.7,026.8,000.0,037.0,030.4,24.8,0000.0,0006.20,0002.89,0002.07
2023-07-28 01:59:00,SystemResetWarning,0833.7,5.00,000.00,028.8,027.1,000.0,037.1,030.5,24.7,0000.0,0006.29,0002.90,0002.06
